Theta_e
295 295 295 295 295 295 294 293 292 292 291 291 290 290 289 289 288 288 287 287 286 285 285 284 284 284 283 283 283 282 283 285 284 281 280 278 278 277 276 276 276 275 275
295 295 295 295 294 294 293 293 292 291 291 290 290 289 288 288 287 286 286 285 285 284 284 284 284 283 282 282 281 281 281 281 282 281 278 277 276 275 275 274 274 274 275
296 296 295 294 294 293 293 292 291 291 290 289 289 288 287 287 286 285 285 284 284 283 283 283 282 281 281 280 280 280 279 278 279 279 277 276 275 274 274 274 273 274 274
297 296 295 294 293 293 292 291 290 290 290 288 288 287 286 286 285 284 284 283 283 282 282 281 281 280 279 279 278 278 278 278 277 277 276 275 273 272 272 271 272 272 272
296 295 295 294 294 292 291 290 290 289 289 288 287 286 285 285 284 284 283 282 282 281 280 279 278 278 278 278 277 277 277 276 276 275 274 273 272 271 270 269 269 270 272
297 296 295 294 293 292 291 290 289 289 288 287 286 285 285 284 283 283 282 282 281 279 278 277 276 276 277 277 276 276 275 274 274 273 272 272 271 269 269 268 268 267 268
297 296 295 294 293 292 291 290 289 289 288 287 286 285 284 283 283 283 282 281 280 279 278 277 276 276 275 274 273 273 273 273 273 272 271 270 269 268 268 268 267 266 266
297 296 295 294 293 291 290 290 289 288 287 286 285 284 284 283 283 282 281 280 279 278 277 277 276 275 274 273 272 272 271 271 271 270 270 269 268 268 268 266 265 266 267
297 296 295 294 293 291 291 290 289 287 286 286 285 284 283 283 282 281 279 279 278 277 276 276 276 276 274 273 272 272 270 270 269 269 268 268 268 268 267 266 266 264 264
298 297 297 295 293 292 292 290 289 287 287 285 284 284 283 283 282 281 278 278 277 276 275 275 275 275 274 273 272 271 270 269 269 268 268 267 267 266 266 265 264 263 262
299 297 296 294 293 293 291 290 288 286 285 284 284 283 282 282 281 281 278 277 277 276 275 275 275 275 273 272 271 271 270 269 268 268 267 267 266 265 265 265 264 263 262
297 296 295 293 292 291 290 288 287 285 284 284 283 282 281 281 281 281 280 277 276 276 275 276 274 275 273 271 270 269 268 268 268 267 267 266 265 265 265 264 263 263 262
295 294 293 292 291 290 289 287 285 284 284 283 282 281 281 280 280 280 280 279 277 276 276 275 274 274 273 272 268 268 268 268 267 266 266 265 265 264 264 264 264 263 263
293 292 291 291 290 288 287 286 285 284 282 281 280 280 280 280 279 279 280 279 278 276 275 274 273 273 273 271 269 267 267 267 266 265 265 264 264 263 263 263 263 263 263
291 291 291 289 288 287 286 286 285 285 285 283 281 281 279 278 279 279 279 278 277 276 274 273 273 271 270 270 268 267 266 266 265 265 264 264 263 263 263 262 262 261 260
291 290 289 288 287 285 285 284 283 283 283 282 282 282 281 281 281 278 278 277 276 274 273 272 272 271 270 268 267 267 267 266 265 264 264 263 263 263 263 262 261 260 260
289 289 288 287 285 284 282 280 280 282 282 282 282 281 279 282 279 279 278 277 276 273 271 271 271 271 271 268 267 267 268 266 265 264 263 263 263 263 262 262 261 260 260
289 288 287 286 285 283 282 281 281 281 282 282 282 282 281 279 279 279 279 277 275 274 272 271 271 271 270 268 268 268 267 266 265 264 263 263 263 262 262 261 261 260 259
286 286 285 284 283 283 282 281 280 280 280 281 281 282 281 280 279 280 279 277 274 274 273 272 271 269 268 268 268 268 267 266 265 264 264 264 263 262 262 261 260 259 258
284 283 282 282 282 281 281 280 279 279 279 280 280 280 281 280 280 280 280 278 276 275 274 273 272 270 269 269 268 268 267 266 265 265 264 263 263 262 262 261 260 259 259
283 282 281 280 281 281 279 279 279 278 279 279 279 280 280 279 278 279 278 278 277 276 274 273 272 271 272 271 269 268 267 266 266 265 264 264 263 263 262 261 260 259 258
280 280 279 279 279 279 279 278 278 278 278 278 278 278 279 278 277 277 277 276 276 276 275 274 274 273 273 272 271 269 268 267 267 266 265 264 263 263 261 261 260 260 258
278 278 278 279 278 279 278 278 278 278 278 278 278 277 278 278 277 276 277 277 276 276 275 275 275 274 273 273 272 270 268 268 268 266 265 264 263 262 261 261 260 260 259
277 277 278 278 277 277 277 277 277 277 277 277 277 276 276 277 276 276 276 276 276 275 275 275 275 274 273 272 271 270 268 267 267 266 265 264 263 262 262 261 260 259 258
276 276 276 277 277 276 276 276 276 276 276 276 276 275 276 276 276 276 276 276 275 274 274 274 274 274 272 271 270 269 268 267 267 266 265 264 263 262 262 261 260 259 258
275 275 275 276 276 276 275 275 274 274 274 274 275 275 275 275 275 275 276 276 275 274 274 273 273 272 271 270 269 269 268 268 267 266 265 264 263 263 262 261 260 259 258
Wind_Speed
15 15 13 13 11 10 9 8 6 5 4 3 2 1 1 1 0 1 1 1 2 3 3 3 4 3 3 4 3 4 4 2 6 6 6 3 5 9 9 11 11 11 12
15 14 13 12 12 10 9 8 7 7 5 4 3 3 2 2 2 2 2 3 3 3 3 3 3 2 4 5 7 8 8 7 3 8 5 3 6 10 9 11 12 14 11
16 15 15 14 13 12 11 10 9 7 5 4 4 3 3 3 3 3 3 3 3 3 3 3 2 2 3 4 5 6 5 7 7 4 4 3 4 12 12 14 14 17 10
19 18 17 16 14 13 11 10 9 7 5 5 4 4 3 3 4 4 5 5 5 4 2 1 1 1 2 1 3 4 5 7 6 6 6 4 6 11 12 19 20 21 11
22 20 19 15 14 14 13 11 9 7 6 5 5 5 5 5 6 6 7 6 6 5 3 2 3 3 2 1 1 3 3 5 6 6 5 3 7 10 15 17 17 21 10
24 23 19 18 18 17 15 13 11 9 9 8 8 8 8 7 6 7 7 8 7 5 4 4 4 6 8 11 12 12 6 3 5 3 4 3 5 7 11 15 18 14 9
25 22 21 21 21 21 17 15 13 12 11 11 10 9 9 9 8 9 10 9 8 8 7 6 4 4 4 4 5 5 7 10 9 4 4 4 4 7 10 14 15 12 9
25 24 24 24 23 20 19 17 15 14 13 12 12 12 12 11 9 10 11 11 10 9 7 6 5 5 3 2 2 1 3 5 6 5 3 3 5 8 10 8 11 15 10
29 28 27 27 26 23 22 20 17 16 16 16 15 15 15 13 12 13 13 14 13 11 10 8 7 5 6 5 6 3 2 2 3 4 3 3 2 6 7 9 12 17 7
32 31 28 28 26 25 22 20 18 19 18 18 17 17 16 15 14 15 13 16 14 13 11 10 7 7 6 5 5 6 4 2 1 1 2 3 4 4 7 10 9 10 8
30 28 27 26 25 22 20 20 20 20 19 19 19 19 19 17 16 16 15 16 15 16 14 12 9 6 5 6 7 6 4 4 2 2 4 5 6 7 8 9 8 8 8
25 25 26 24 22 21 21 20 21 21 21 22 22 21 20 19 17 17 17 14 14 17 16 14 12 10 8 6 6 6 5 4 3 4 5 6 7 8 8 9 9 11 10
21 23 23 21 21 21 22 23 23 24 26 26 27 26 25 22 21 20 20 18 15 17 16 15 12 12 10 9 6 5 4 4 4 5 6 7 8 8 9 10 9 12 11
20 20 19 21 22 22 23 24 27 28 29 28 26 24 26 25 24 24 24 22 18 17 13 14 14 17 17 14 11 6 5 5 5 6 7 8 8 9 9 11 13 15 17
19 19 21 22 23 24 26 28 30 31 31 32 31 30 28 27 30 29 29 27 25 23 17 19 21 21 19 17 15 12 9 8 8 8 8 8 9 9 9 10 12 14 13
21 23 24 24 24 25 25 27 25 25 28 24 23 27 28 26 20 24 25 23 23 22 22 26 28 25 22 18 16 12 12 11 10 10 9 9 10 11 11 11 12 14 17
27 27 25 26 26 26 26 21 18 22 21 22 24 22 21 23 21 25 25 23 22 22 23 28 29 27 23 19 16 14 13 11 11 12 11 11 11 11 12 12 13 15 19
26 27 27 27 26 27 27 25 20 19 21 23 26 25 23 20 22 26 26 23 24 25 27 26 29 27 23 20 17 15 14 15 15 15 13 12 12 11 12 13 13 15 18
25 26 26 25 25 25 25 23 21 22 21 20 22 25 25 24 22 26 29 30 30 27 31 28 25 23 22 19 16 15 16 16 16 16 15 14 12 12 14 14 14 14 16
22 23 22 22 23 22 21 22 19 20 21 22 24 25 27 27 25 28 32 32 35 34 31 28 25 22 20 18 16 16 17 18 18 17 16 14 13 14 15 14 14 16 17
19 18 18 19 22 22 20 20 20 21 22 23 26 29 32 32 27 27 30 34 37 35 31 28 26 24 19 19 19 19 19 18 18 18 17 15 14 15 13 14 15 16 17
15 16 19 22 21 20 19 21 23 24 24 26 27 29 27 31 32 34 35 35 38 36 31 27 25 24 22 20 20 21 21 20 19 17 16 15 15 14 13 14 14 15 16
15 16 19 22 23 22 22 24 25 25 26 28 29 29 30 29 35 36 38 38 36 32 28 26 26 25 24 22 22 22 22 20 16 15 16 17 16 14 13 14 14 14 15
16 17 20 21 21 23 24 25 25 25 26 29 30 30 31 29 33 37 37 35 34 33 30 28 27 26 24 23 23 23 21 18 16 16 16 16 15 13 13 15 13 14 15
17 20 21 22 23 24 25 25 25 26 27 29 30 31 32 33 34 36 35 34 34 32 32 31 29 27 25 24 24 22 20 18 17 17 17 16 15 14 14 14 13 13 14
18 20 22 23 24 24 25 25 26 26 27 28 30 32 33 34 36 37 35 33 35 34 33 31 29 27 25 24 23 21 20 19 19 18 17 17 17 15 14 14 13 13 13
Wind_Direction
165 160 158 157 160 164 164 157 156 159 164 167 163 178 199 245 258 260 138 126 119 111 103 88 71 45 41 40 33 34 32 47 115 101 109 84 24 19 17 17 21 14 6
172 171 171 172 174 172 170 173 176 180 185 202 204 204 214 231 215 197 197 184 172 161 141 130 98 68 66 46 36 37 32 41 90 124 115 77 29 13 15 17 23 13 9
185 186 184 185 186 186 187 188 190 191 192 203 212 220 225 235 233 215 215 196 178 169 170 163 151 155 134 136 130 110 72 47 50 105 110 62 3 4 6 10 18 16 21
197 197 197 197 196 197 197 198 196 195 206 218 225 229 232 234 230 221 210 194 178 183 180 155 138 121 95 69 64 72 97 106 99 94 89 58 18 357 1 2 3 7 9
204 205 207 203 203 204 203 201 201 204 211 219 224 227 228 230 227 219 210 198 188 181 164 130 107 115 113 135 97 76 71 87 92 78 60 50 37 15 3 352 347 359 9
210 213 209 206 206 207 206 204 205 208 211 219 223 225 222 225 224 218 214 203 192 182 150 128 111 101 83 75 75 71 71 65 72 84 63 38 32 13 358 353 357 2 347
214 214 211 210 209 210 208 207 211 214 216 217 219 220 221 225 219 198 206 205 197 191 183 173 163 170 146 128 89 75 76 68 68 87 68 24 9 358 352 353 352 344 315
214 215 213 212 213 209 210 214 216 216 217 217 218 218 223 226 215 187 203 201 195 190 194 196 196 183 182 182 222 80 67 59 57 60 51 25 14 1 359 345 335 334 340
217 215 214 214 211 211 214 215 216 215 217 220 219 218 221 219 198 187 196 199 190 184 190 202 212 214 201 176 203 209 177 107 69 70 66 50 35 29 2 345 352 357 347
222 221 216 216 216 218 222 220 222 222 223 219 217 221 226 222 203 193 195 205 195 188 191 204 225 240 209 187 204 216 208 225 281 296 266 291 320 330 337 351 353 359 352
232 225 219 218 220 225 227 225 224 222 219 218 221 221 223 222 211 198 197 211 208 197 198 196 200 179 169 170 207 215 224 222 223 273 277 299 315 325 336 342 345 344 333
230 222 219 218 219 223 226 225 223 220 217 217 216 213 218 221 220 206 207 214 209 211 205 210 201 189 180 170 161 155 167 215 241 257 273 293 305 317 328 334 333 329 321
221 217 215 215 219 222 221 220 216 217 217 211 207 206 213 219 216 213 215 212 208 218 218 220 204 194 197 190 172 185 225 239 252 263 276 283 297 312 320 321 324 325 329
221 214 212 214 217 219 222 224 222 218 214 211 203 207 217 220 218 211 213 207 211 210 201 191 191 202 210 215 215 230 245 247 250 259 271 281 293 302 314 325 330 334 335
224 223 222 222 221 223 228 230 229 234 231 220 218 216 211 212 225 219 212 211 211 214 203 190 193 202 210 221 230 239 246 252 255 259 268 280 290 304 317 326 330 331 326
230 229 228 229 230 232 233 234 236 242 242 228 235 235 235 237 239 209 209 212 210 198 201 203 207 216 222 225 229 236 247 253 257 263 266 277 296 308 316 324 325 324 323
240 241 238 235 235 233 231 221 221 232 231 226 224 221 222 233 211 205 203 199 196 192 207 209 217 222 228 233 239 242 253 261 260 260 265 280 291 301 309 320 323 323 325
247 247 245 244 240 238 234 227 218 212 210 215 219 221 219 217 208 203 198 193 196 206 220 217 224 229 232 238 241 247 255 256 258 259 267 276 283 294 306 314 316 318 323
253 252 249 247 244 242 237 229 217 216 213 213 209 213 215 213 210 205 197 196 197 205 218 228 232 232 232 237 243 249 252 255 258 260 267 275 283 291 301 305 310 314 316
253 253 251 244 237 232 229 224 213 214 210 208 206 208 204 202 206 205 205 208 213 217 224 229 234 234 232 238 245 251 252 252 255 260 268 273 281 288 294 300 306 310 315
255 249 240 231 228 224 218 217 216 212 211 210 212 211 206 198 202 205 205 213 218 223 228 232 232 229 235 243 249 251 253 256 258 261 264 271 276 280 288 293 300 305 311
251 239 225 223 224 219 218 219 217 216 214 217 217 218 208 205 206 209 212 215 223 229 233 234 235 235 240 245 250 251 253 256 258 259 264 268 270 275 281 287 294 302 308
241 234 229 230 228 230 226 226 223 222 220 225 225 222 211 208 215 218 222 224 226 233 234 236 238 239 243 248 253 254 255 259 266 266 262 261 263 267 274 282 291 299 308
235 234 234 238 234 232 231 228 227 227 224 228 226 225 221 213 223 227 230 230 229 232 235 236 239 243 246 250 252 253 256 258 255 256 257 256 259 262 267 277 288 297 304
241 238 242 241 238 235 236 235 233 231 226 230 231 230 229 225 227 231 233 230 230 230 233 237 241 244 247 248 250 252 253 253 254 253 251 251 255 260 267 274 283 290 295
255 251 250 247 243 241 239 237 233 234 229 229 234 237 236 234 234 235 233 230 229 231 234 236 239 242 246 247 247 247 248 251 252 250 248 247 251 256 261 269 273 281 290